Weather History for Truckee-Tahoe, CA

Change the Weather History Date:

Friday, February 15, 2013

  Actual Average Record
Temperature  
Mean Temperature 34 °F -  
Max Temperature 51 °F 42 °F 64 °F (1991)
Min Temperature 17 °F 17 °F -6 °F (1990)
Degree Days  
Heating Degree Days 31    
Moisture  
Dew Point 21 °F    
Average Humidity 75    
Maximum Humidity 100    
Minimum Humidity 33    
Precipitation  
Precipitation 0.00 in - - ()
Snow  
Snow 0.00 in - - ()
Snow Depth 5.00 in    
Sea Level Pressure  
Sea Level Pressure 30.42 in    
Wind  
Wind Speed 1 mph (North)    
Max Wind Speed 7 mph    
Max Gust Speed -    
Visibility 10 miles    
Events      
Averages and records for this station are not official NWS values.
T = Trace of Precipitation, MM = Missing Value Source: NWS Daily Summary

Daily Weather History Graph

Daily Weather History Graph

Search for Another Location

Airport:

Trip Planner

Search our weather history database for the weather conditions in past years. The results will help you decide how hot, cold, wet, or windy it might be!

Date:

Astronomy

Feb. 15, 2013 Rise Set
Actual Time 6:51 AM PST 5:37 PM PST
Civil Twilight 6:24 AM PST 6:05 PM PST
Nautical Twilight 5:53 AM PST 6:36 PM PST
Astronomical Twilight 5:22 AM PST 7:07 PM PST
Moon 9:33 AM PST (2/15) 11:41 PM PST (2/15)
Length of Visible Light 11h 40m
Length of Day
10h 45m
Waxing Crescent, 31% of the Moon is Illuminated
Feb 15
Waxing Crescent
Feb 17
First Quarter
Feb 25
Full
Mar 4
Last Quarter
Mar 11
New

Hourly Weather History & Observations

Time (PST) Temp. Windchill Dew Point Humidity Pressure Visibility Wind Dir Wind Speed Gust Speed Precip Events Conditions
12:15 AM 23.0 °F - 19.4 °F 86% 30.44 in 10.0 mi Calm Calm - N/A   Clear
12:35 AM 24.8 °F 20.5 °F 19.4 °F 80% 30.44 in 10.0 mi East 3.5 mph - N/A   Clear
12:55 AM 23.0 °F - 19.4 °F 86% 30.44 in 10.0 mi Calm Calm - N/A   Clear
1:15 AM 23.0 °F - 19.4 °F 86% 30.44 in 10.0 mi Calm Calm - N/A   Clear
1:35 AM 23.0 °F - 19.4 °F 86% 30.44 in 10.0 mi Calm Calm - N/A   Clear
1:55 AM 23.0 °F - 19.4 °F 86% 30.45 in 10.0 mi Calm Calm - N/A   Clear
2:15 AM 23.0 °F - 19.4 °F 86% 30.45 in 10.0 mi Calm Calm - N/A   Clear
2:35 AM 19.4 °F - 17.6 °F 93% 30.45 in 10.0 mi Calm Calm - N/A   Clear
2:55 AM 19.4 °F - 17.6 °F 93% 30.45 in 10.0 mi Calm Calm - N/A   Clear
3:15 AM 21.2 °F - 19.4 °F 93% 30.44 in 10.0 mi Calm Calm - N/A   Clear
3:35 AM 19.4 °F - 17.6 °F 93% 30.44 in 10.0 mi Calm Calm - N/A   Clear
3:55 AM 19.4 °F - 17.6 °F 93% 30.44 in 10.0 mi Calm Calm - N/A   Clear
4:15 AM 19.4 °F - 19.4 °F 100% 30.45 in 10.0 mi Calm Calm - N/A   Clear
4:35 AM 19.4 °F - 17.6 °F 93% 30.44 in 10.0 mi Calm Calm - N/A   Clear
4:55 AM 19.4 °F - 17.6 °F 93% 30.44 in 10.0 mi Calm Calm - N/A   Clear
5:15 AM 17.6 °F - 15.8 °F 93% 30.45 in 5.0 mi Calm Calm - N/A   Clear
5:35 AM 17.6 °F 12.3 °F 15.8 °F 93% 30.44 in 10.0 mi SW 3.5 mph - N/A   Clear
6:45 AM 17.6 °F - 15.8 °F 93% 30.44 in 10.0 mi Calm Calm - N/A   Clear
7:45 AM 17.6 °F - 15.8 °F 93% 30.45 in 10.0 mi Calm Calm - N/A   Clear
8:50 AM 23.0 °F - 19.4 °F 86% 30.46 in 10.0 mi Calm Calm - N/A   Clear
9:45 AM 28.4 °F - 23.0 °F 80% 30.45 in 10.0 mi Calm Calm - N/A   Clear
10:55 AM 37.4 °F - 24.8 °F 60% 30.43 in 10.0 mi Calm Calm - N/A   Clear
11:45 AM 41.0 °F - 24.8 °F 53% 30.42 in 10.0 mi Calm Calm - N/A   Clear
12:50 PM 44.6 °F 40.7 °F 24.8 °F 46% 30.39 in 10.0 mi North 6.9 mph - N/A   Clear
1:50 PM 48.2 °F - 24.8 °F 40% 30.36 in 10.0 mi North 6.9 mph - N/A   Clear
2:55 PM 50.0 °F - 24.8 °F 37% 30.36 in 10.0 mi North 5.8 mph - N/A   Clear
3:45 PM 51.8 °F - 23.0 °F 33% 30.36 in 10.0 mi North 3.5 mph - N/A   Clear
4:55 PM 50.0 °F - 23.0 °F 35% 30.36 in 10.0 mi North 5.8 mph - N/A   Clear
5:15 PM 48.2 °F - 23.0 °F 37% 30.36 in 10.0 mi NNW 4.6 mph - N/A   Clear
5:35 PM 46.4 °F 45.2 °F 23.0 °F 40% 30.36 in 10.0 mi West 3.5 mph - N/A   Clear
5:55 PM 39.2 °F 37.0 °F 24.8 °F 56% 30.37 in 10.0 mi South 3.5 mph - N/A   Clear
6:15 PM 37.4 °F - 24.8 °F 60% 30.38 in 10.0 mi Calm Calm - N/A   Clear
6:35 PM 35.6 °F 32.8 °F 23.0 °F 60% 30.38 in 10.0 mi SSE 3.5 mph - N/A   Clear
6:55 PM 35.6 °F - 24.8 °F 65% 30.39 in 10.0 mi Calm Calm - N/A   Clear
7:15 PM 33.8 °F - 23.0 °F 65% 30.39 in 10.0 mi Calm Calm - N/A   Clear
7:35 PM 32.0 °F - 24.8 °F 75% 30.40 in 10.0 mi Calm Calm - N/A   Clear
7:55 PM 32.0 °F - 23.0 °F 69% 30.40 in 10.0 mi Calm Calm - N/A   Clear
8:15 PM 32.0 °F - 23.0 °F 69% 30.41 in 10.0 mi Calm Calm - N/A   Clear
8:35 PM 30.2 °F - 23.0 °F 75% 30.41 in 10.0 mi Calm Calm - N/A   Clear
8:55 PM 28.4 °F - 23.0 °F 80% 30.42 in 10.0 mi Calm Calm - N/A   Clear
9:15 PM 28.4 °F - 23.0 °F 80% 30.42 in 10.0 mi Calm Calm - N/A   Clear
9:35 PM 26.6 °F - 21.2 °F 80% 30.42 in 10.0 mi Calm Calm - N/A   Clear
9:55 PM 26.6 °F - 21.2 °F 80% 30.42 in 10.0 mi Calm Calm - N/A   Clear
10:15 PM 24.8 °F - 21.2 °F 86% 30.42 in 10.0 mi Calm Calm - N/A   Clear
10:35 PM 26.6 °F - 21.2 °F 80% 30.42 in 10.0 mi Calm Calm - N/A   Clear
10:55 PM 24.8 °F - 21.2 °F 86% 30.42 in 10.0 mi Calm Calm - N/A   Clear
11:15 PM 23.0 °F - 19.4 °F 86% 30.42 in 10.0 mi Calm Calm - N/A   Clear
11:35 PM 24.8 °F - 19.4 °F 80% 30.42 in 10.0 mi Calm Calm - N/A   Clear
11:55 PM 24.8 °F 20.5 °F 21.2 °F 86% 30.42 in 10.0 mi SSE 3.5 mph - N/A   Clear